Flag for Germany Weather past 2 weeks in Burg, Saxony-Anhalt, Germany

Now
67 °F

Overcast.


Feels Like: 67 °F
Forecast: 44 / 57 °F
Wind: 6 mph from West

Location: Magdeburg

Current Time: May 25, 2015 at 2:53:03 PM

Latest Report: May 25, 2015 at 2:00 PM


Visibility: 31 mi

Pressure: 29.90 "Hg

Humidity: 44%

Dew point: 45 °F

Location of BurgLocation

Historic Weather in Burg — Graph

°F

Burg temperature yesterday

Maximum temperature yesterday: 69 °F (at 6:00 PM)
Minimum temperature yesterday: 42 °F (at 6:00 AM)
Average temperature yesterday: 57 °F

Past Weeks' High & Low Weather Summary

 TemperatureHumidityPressure
High80 °F (May 12, 4:00 PM)97% (May 15, 5:00 AM)30.38 "Hg (May 15, 5:00 AM)
Low38 °F (May 15, 5:00 AM)27% (May 22, 3:00 PM)29.61 "Hg (May 19, 2:00 AM)
Average56 °F63%30.06 "Hg
* Reported May 10 2:00 PM — May 25 2:00 PM, Burg, Weather by CustomWeather, © 2015

Note: Actual official high and low records may vary slightly from our data, if they occured in-between our weather recording intervals... More about our weather records

Advertising

Burg weather history for previous 24 hours

 ConditionsComfort  
Time TempWeatherWind HumidityBarometerVisibility
2:00 PM
Mon, May 25
67 °FOvercast.6 mph44%29.90 "Hg31 mi
1:00 PM68 °FPartly sunny.2 mph45%29.90 "Hg31 mi
12:00 PM67 °FScattered clouds.5 mph43%29.91 "Hg31 mi
10:00 AM64 °FScattered clouds.3 mph49%29.94 "Hg31 mi
9:00 AM61 °FPartly sunny.2 mph65%29.95 "Hg31 mi
8:00 AM58 °FPartly sunny.1 mph75%29.95 "Hg25 mi
7:00 AM56 °FPartly sunny.2 mph84%29.95 "Hg22 mi
6:00 AM52 °FScattered clouds.1 mph91%29.96 "Hg19 mi
4:00 AM53 °FClear.1 mph91%29.96 "Hg11 mi
3:00 AM56 °FPassing clouds.1 mph84%29.97 "Hg17 mi
2:00 AM58 °FOvercast.1 mph78%29.99 "Hg19 mi
1:00 AM60 °FOvercast.1 mph72%30.00 "Hg22 mi
12:00 AM60 °FOvercast.1 mph69%30.01 "Hg11 mi
10:00 PM
Sun, May 24
60 °FOvercast.1 mph65%30.02 "Hg19 mi
9:00 PM64 °FPassing clouds.1 mph54%30.02 "Hg34 mi
8:00 PM67 °FPassing clouds.1 mph44%30.02 "Hg37 mi
7:00 PM69 °FPassing clouds.2 mph43%30.03 "Hg34 mi
6:00 PM69 °FPartly sunny.1 mph39%30.05 "Hg19 mi
4:00 PM69 °FScattered clouds.2 mph36%30.08 "Hg31 mi
3:00 PM67 °FPassing clouds.2 mph37%30.09 "Hg31 mi
2:00 PM65 °FPassing clouds.2 mph39%30.11 "Hg31 mi
Weather by CustomWeather, © 2015

See weather overviewHow to use our weather pages